{"data":{"norad_id":47565,"epoch":"2026-06-29T01:54:14.042016Z","epoch_age_seconds":7234617,"freshness":"OLD","line1":"1 47565U 21009T   26180.07932919  .10503916  12450-4  31722-3 0  9995","line2":"2 47565  53.0202 126.8886 0006751 247.7836 112.2496 16.44696649299185","mean_motion":16.44696649,"eccentricity":0.0006751,"inclination_deg":53.0202,"raan_deg":126.8886,"arg_perigee_deg":247.7836,"mean_anomaly_deg":112.2496,"bstar":0.00031722,"rev_number":29918,"period_min":87.554139596231,"perigee_km":148.92911328558,"apogee_km":157.74791152243,"semimajor_km":6531.475512404,"source":"CELESTRAK","updated_at":"2026-06-29T09:01:22.512270Z"}}